�������l�o���
Date,Time,MP-1(��Sv/h),MP-2(��Sv/h),MP-3(��Sv/h),MP-4(��Sv/h),MP-5(��Sv/h),MP-6(��Sv/h),MP-7(��Sv/h),MP-8(��Sv/h),����,����(m/s),���J
2017/09/26,00:00,0.951,1.511,0.981,1.796,1.243,0.515,0.943,0.867,�쐼,0.6,��
2017/09/26,00:10,0.950,1.510,0.982,1.796,1.240,0.514,0.940,0.867,�k�k��,0.8,��
2017/09/26,00:20,0.948,1.510,0.980,1.798,1.243,0.514,0.942,0.867,�k�k��,0.8,��
2017/09/26,00:30,0.949,1.511,0.984,1.794,1.242,0.515,0.941,0.865,�k,1.1,��
2017/09/26,00:40,0.950,1.508,0.981,1.796,1.244,0.514,0.942,0.865,�k,1.5,��
2017/09/26,00:50,0.950,1.510,0.982,1.798,1.245,0.515,0.942,0.866,�k,2.2,��
2017/09/26,01:00,0.950,1.511,0.980,1.796,1.244,0.515,0.942,0.867,�k��,2.6,��
2017/09/26,01:10,0.949,1.510,0.982,1.796,1.242,0.514,0.942,0.865,���k��,2.6,��
2017/09/26,01:20,0.949,1.511,0.980,1.798,1.244,0.513,0.942,0.868,�k��,3.9,��
2017/09/26,01:30,0.948,1.511,0.981,1.796,1.242,0.513,0.943,0.866,�k�k��,4.0,��
2017/09/26,01:40,0.949,1.510,0.980,1.798,1.243,0.516,0.941,0.865,�k�k��,3.9,��
2017/09/26,01:50,0.951,1.510,0.980,1.796,1.242,0.513,0.942,0.867,�k�k��,4.5,��
2017/09/26,02:00,0.948,1.509,0.982,1.795,1.243,0.514,0.941,0.866,�k�k��,4.7,��
2017/09/26,02:10,0.948,1.512,0.983,1.798,1.242,0.514,0.941,0.865,�k�k��,4.8,��
2017/09/26,02:20,0.948,1.510,0.981,1.796,1.242,0.515,0.941,0.865,�k�k��,4.8,��
2017/09/26,02:30,0.947,1.508,0.979,1.796,1.239,0.513,0.942,0.868,�k�k��,4.8,��
2017/09/26,02:40,0.948,1.508,0.980,1.797,1.239,0.513,0.941,0.865,�k�k��,4.8,��
2017/09/26,02:50,0.948,1.509,0.981,1.796,1.240,0.514,0.943,0.865,�k�k��,4.5,��
2017/09/26,03:00,0.949,1.508,0.978,1.794,1.239,0.513,0.941,0.865,�k�k��,4.6,��
2017/09/26,03:10,0.946,1.508,0.979,1.796,1.240,0.513,0.941,0.865,�k�k��,4.8,��
2017/09/26,03:20,0.946,1.509,0.980,1.796,1.240,0.513,0.942,0.865,�k�k��,4.2,��
2017/09/26,03:30,0.949,1.510,0.981,1.797,1.241,0.514,0.942,0.865,�k�k��,4.3,��
2017/09/26,03:40,0.946,1.506,0.982,1.794,1.240,0.514,0.940,0.864,�k��,5.1,��
2017/09/26,03:50,0.947,1.506,0.979,1.797,1.237,0.514,0.940,0.866,�k�k��,5.6,��
2017/09/26,04:00,0.948,1.506,0.981,1.796,1.242,0.514,0.941,0.864,�k�k��,6.5,��
2017/09/26,04:10,0.947,1.505,0.981,1.797,1.238,0.513,0.942,0.866,�k�k��,6.3,��
2017/09/26,04:20,0.946,1.508,0.981,1.800,1.239,0.513,0.941,0.866,�k�k��,5.3,��
2017/09/26,04:30,0.946,1.507,0.979,1.795,1.240,0.511,0.941,0.865,�k��,5.1,��
2017/09/26,04:40,0.945,1.507,0.978,1.795,1.241,0.512,0.940,0.865,�k��,5.6,��
2017/09/26,04:50,0.946,1.505,0.976,1.792,1.239,0.512,0.940,0.865,�k��,4.7,��
2017/09/26,05:00,0.946,1.509,0.978,1.796,1.239,0.512,0.939,0.865,�k��,4.8,��
2017/09/26,05:10,0.944,1.506,0.980,1.795,1.240,0.513,0.940,0.865,�k��,4.3,��
2017/09/26,05:20,0.945,1.507,0.980,1.793,1.239,0.511,0.938,0.866,�k��,4.6,��
2017/09/26,05:30,0.945,1.507,0.977,1.794,1.238,0.512,0.938,0.865,�k��,3.9,��
2017/09/26,05:40,0.945,1.504,0.979,1.793,1.240,0.512,0.939,0.864,�k��,3.6,��
2017/09/26,05:50,0.946,1.506,0.978,1.795,1.240,0.513,0.940,0.865,�k�k��,2.9,��
2017/09/26,06:00,0.945,1.506,0.980,1.794,1.240,0.512,0.939,0.866,�k��,2.5,��
2017/09/26,06:10,0.947,1.509,0.979,1.794,1.238,0.510,0.941,0.866,�k�k��,1.9,��
2017/09/26,06:20,0.945,1.505,0.979,1.794,1.237,0.512,0.941,0.866,�k��,2.2,��
2017/09/26,06:30,0.945,1.505,0.977,1.795,1.239,0.512,0.940,0.865,�k�k��,2.0,��
2017/09/26,06:40,0.947,1.506,0.978,1.796,1.240,0.513,0.941,0.865,�k�k��,2.0,��
2017/09/26,06:50,0.947,1.507,0.979,1.797,1.240,0.512,0.941,0.866,�k�k��,1.7,��
2017/09/26,07:00,0.949,1.510,0.980,1.794,1.239,0.512,0.940,0.865,�k�k��,2.2,��
2017/09/26,07:10,0.946,1.508,0.979,1.794,1.238,0.513,0.942,0.865,�k,1.5,��
2017/09/26,07:20,0.945,1.507,0.979,1.794,1.237,0.513,0.941,0.864,�k,1.7,��
2017/09/26,07:30,0.946,1.511,0.980,1.796,1.237,0.513,0.941,0.865,�k�k��,1.2,��
2017/09/26,07:40,0.947,1.510,0.981,1.796,1.239,0.511,0.942,0.865,�k,1.1,��
2017/09/26,07:50,0.947,1.508,0.979,1.797,1.242,0.513,0.942,0.867,�k��,1.1,��
2017/09/26,08:00,0.944,1.510,0.981,1.798,1.241,0.511,0.941,0.865,�쐼,0.9,��
2017/09/26,08:10,0.948,1.505,0.982,1.799,1.242,0.510,0.944,0.868,�k��,1.2,��
2017/09/26,08:20,0.948,1.509,0.985,1.797,1.243,0.510,0.940,0.869,-,CALM,��
2017/09/26,08:30,0.949,1.506,0.982,1.796,1.240,0.511,0.940,0.868,�k�k��,0.9,��
2017/09/26,08:40,0.948,1.508,0.982,1.798,1.241,0.510,0.940,0.868,�k�k��,1.7,��
2017/09/26,08:50,0.949,1.511,0.984,1.800,1.242,0.510,0.940,0.867,���k��,1.4,��
2017/09/26,09:00,0.950,1.510,0.981,1.797,1.241,0.512,0.942,0.865,�k�k��,0.6,��
2017/09/26,09:10,0.949,1.508,0.983,1.798,1.242,0.511,0.941,0.864,���쓌,1.2,��
2017/09/26,09:20,0.947,1.510,0.982,1.801,1.239,0.514,0.943,0.866,�쓌,0.9,��
2017/09/26,09:30,0.951,1.511,0.981,1.800,1.243,0.511,0.942,0.865,�쓌,1.1,��
2017/09/26,09:40,0.949,1.509,0.982,1.800,1.244,0.510,0.941,0.866,�쓌,1.1,��
2017/09/26,09:50,0.951,1.512,0.981,1.802,1.243,0.512,0.940,0.865,-,CALM,��
2017/09/26,10:00,0.952,1.513,0.982,1.805,1.244,0.512,0.940,0.865,���쓌,1.1,��
2017/09/26,10:10,0.951,1.511,0.981,1.803,1.244,0.512,0.942,0.868,��,1.9,��
2017/09/26,10:20,0.952,1.515,0.983,1.804,1.246,0.512,0.942,0.865,���쓌,2.5,��
2017/09/26,10:30,0.955,1.512,0.982,1.802,1.248,0.512,0.941,0.866,��,2.2,��
2017/09/26,10:40,0.953,1.513,0.983,1.803,1.247,0.511,0.941,0.865,��,2.9,��
2017/09/26,10:50,0.950,1.513,0.982,1.802,1.245,0.513,0.941,0.866,��,3.6,��
2017/09/26,11:00,0.951,1.515,0.983,1.802,1.248,0.512,0.942,0.866,��,2.9,��
2017/09/26,11:10,0.953,1.514,0.985,1.804,1.247,0.513,0.943,0.865,��,3.8,��
2017/09/26,11:20,0.955,1.512,0.983,1.804,1.250,0.513,0.942,0.866,��,3.3,��
2017/09/26,11:30,0.954,1.518,0.985,1.805,1.249,0.513,0.941,0.864,��,3.1,��
2017/09/26,11:40,0.953,1.515,0.984,1.807,1.250,0.514,0.941,0.866,��,3.3,��
2017/09/26,11:50,0.954,1.518,0.983,1.805,1.251,0.512,0.942,0.866,���k��,3.3,��
2017/09/26,12:00,0.954,1.520,0.986,1.804,1.252,0.512,0.942,0.867,���k��,3.4,��
2017/09/26,12:10,0.957,1.516,0.985,1.803,1.252,0.512,0.941,0.866,��,3.2,��
2017/09/26,12:20,0.956,1.519,0.986,1.806,1.253,0.513,0.943,0.864,��,2.6,��
2017/09/26,12:30,0.954,1.522,0.986,1.807,1.254,0.514,0.943,0.867,���쓌,2.5,��
2017/09/26,12:40,0.954,1.523,0.986,1.806,1.252,0.511,0.941,0.867,��,2.9,��
2017/09/26,12:50,0.956,1.524,0.985,1.808,1.254,0.514,0.942,0.868,��,3.4,��
2017/09/26,13:00,0.954,1.521,0.987,1.807,1.252,0.513,0.943,0.866,��,2.3,��
2017/09/26,13:10,0.954,1.521,0.985,1.810,1.252,0.514,0.944,0.867,�쓌,3.3,��
2017/09/26,13:20,0.947,1.518,0.987,1.806,1.254,0.514,0.942,0.867,�쓌,3.8,��
2017/09/26,13:30,0.954,1.520,0.986,1.810,1.251,0.514,0.942,0.867,���쓌,3.4,��
2017/09/26,13:40,0.957,1.520,0.987,1.807,1.252,0.511,0.944,0.865,�쓌,4.4,��
2017/09/26,13:50,0.954,1.521,0.986,1.808,1.254,0.515,0.943,0.866,��쓌,4.5,��
2017/09/26,14:00,0.955,1.521,0.988,1.809,1.254,0.514,0.941,0.866,�쓌,4.7,��
2017/09/26,14:10,0.955,1.520,0.988,1.809,1.255,0.514,0.942,0.868,�쓌,3.5,��
2017/09/26,14:20,0.956,1.523,0.987,1.807,1.255,0.516,0.943,0.866,�쓌,3.9,��
2017/09/26,14:30,0.958,1.520,0.987,1.808,1.257,0.514,0.944,0.867,��쓌,3.7,��
2017/09/26,14:40,0.956,1.523,0.987,1.809,1.255,0.513,0.943,0.866,��쓌,3.6,��
2017/09/26,14:50,0.956,1.526,0.987,1.807,1.256,0.514,0.941,0.866,��쓌,3.8,��
2017/09/26,15:00,0.956,1.521,0.989,1.807,1.256,0.514,0.943,0.867,��쓌,4.6,��
2017/09/26,15:10,0.956,1.524,0.989,1.809,1.254,0.517,0.944,0.867,��쓌,4.1,��
2017/09/26,15:20,0.953,1.523,0.988,1.808,1.254,0.514,0.943,0.865,��쓌,3.4,��
2017/09/26,15:30,0.955,1.522,0.988,1.810,1.255,0.516,0.941,0.865,��쓌,4.7,��
2017/09/26,15:40,0.957,1.526,0.987,1.810,1.253,0.514,0.943,0.866,��쓌,4.9,��
2017/09/26,15:50,0.955,1.523,0.987,1.811,1.253,0.515,0.943,0.866,��쓌,4.8,��
2017/09/26,16:00,0.956,1.524,0.989,1.808,1.257,0.514,0.943,0.867,��쓌,5.0,��
2017/09/26,16:10,0.957,1.525,0.987,1.806,1.254,0.515,0.942,0.866,��쓌,4.5,��
2017/09/26,16:20,0.955,1.521,0.986,1.806,1.255,0.517,0.943,0.866,��쓌,4.6,��
2017/09/26,16:30,0.957,1.524,0.986,1.807,1.255,0.516,0.942,0.866,��쓌,4.1,��
2017/09/26,16:40,0.953,1.523,0.985,1.806,1.254,0.515,0.943,0.865,��쓌,3.8,��
2017/09/26,16:50,0.955,1.526,0.987,1.807,1.254,0.515,0.941,0.866,��쓌,3.2,��
2017/09/26,17:00,0.953,1.525,0.988,1.808,1.255,0.515,0.944,0.868,��쓌,3.2,��
2017/09/26,17:10,0.955,1.529,0.988,1.803,1.254,0.517,0.943,0.869,�쓌,3.8,��
2017/09/26,17:20,0.957,1.529,0.987,1.808,1.251,0.515,0.945,0.869,��쓌,3.7,��
2017/09/26,17:30,0.953,1.529,0.985,1.810,1.255,0.516,0.944,0.870,�쓌,3.8,��
2017/09/26,17:40,0.952,1.529,0.986,1.807,1.253,0.517,0.943,0.867,��쓌,3.6,��
2017/09/26,17:50,0.953,1.530,0.987,1.811,1.255,0.516,0.945,0.869,��쓌,4.2,��
2017/09/26,18:00,0.956,1.527,0.989,1.808,1.253,0.516,0.944,0.870,��쓌,4.5,��
2017/09/26,18:10,0.957,1.527,0.990,1.806,1.251,0.517,0.945,0.868,��쓌,4.4,��
2017/09/26,18:20,0.959,1.527,0.988,1.807,1.256,0.519,0.943,0.869,��쓌,3.9,��
2017/09/26,18:30,0.955,1.529,0.990,1.809,1.259,0.516,0.944,0.867,��,4.6,��
2017/09/26,18:40,0.955,1.530,0.991,1.808,1.256,0.517,0.944,0.869,��,4.3,��
2017/09/26,18:50,0.954,1.527,0.989,1.809,1.257,0.515,0.943,0.869,��,4.8,��
2017/09/26,19:00,0.956,1.528,0.991,1.808,1.254,0.516,0.943,0.868,��,4.1,��
2017/09/26,19:10,0.958,1.527,0.989,1.807,1.257,0.517,0.945,0.870,��,4.2,��
2017/09/26,19:20,0.954,1.526,0.990,1.809,1.253,0.516,0.944,0.868,��,3.3,��
2017/09/26,19:30,0.952,1.527,0.989,1.805,1.255,0.517,0.943,0.870,��쐼,3.2,��
2017/09/26,19:40,0.956,1.526,0.989,1.806,1.256,0.516,0.945,0.868,�쐼,1.7,��
2017/09/26,19:50,0.956,1.528,0.989,1.804,1.257,0.516,0.942,0.870,��쐼,2.2,��
2017/09/26,20:00,0.956,1.530,0.990,1.807,1.257,0.516,0.943,0.868,��,1.9,��
2017/09/26,20:10,0.957,1.527,0.987,1.806,1.256,0.517,0.944,0.868,��,4.3,��
2017/09/26,20:20,0.956,1.528,0.988,1.807,1.254,0.515,0.943,0.867,��,2.5,��
2017/09/26,20:30,0.956,1.526,0.989,1.804,1.256,0.517,0.944,0.867,��,5.6,��
2017/09/26,20:40,0.955,1.526,0.991,1.805,1.254,0.516,0.945,0.867,��,5.8,��
2017/09/26,20:50,0.959,1.526,0.989,1.806,1.255,0.518,0.943,0.868,��,5.5,��
2017/09/26,21:00,0.954,1.525,0.991,1.805,1.256,0.518,0.944,0.868,��,3.8,��
2017/09/26,21:10,0.955,1.526,0.988,1.807,1.256,0.516,0.942,0.868,��쓌,3.7,��
2017/09/26,21:20,0.957,1.524,0.988,1.807,1.257,0.516,0.944,0.869,��쓌,5.7,��
2017/09/26,21:30,0.955,1.526,0.988,1.809,1.257,0.517,0.943,0.868,��,6.3,��
2017/09/26,21:40,0.957,1.524,0.990,1.805,1.256,0.517,0.943,0.867,��쓌,6.1,��
2017/09/26,21:50,0.958,1.527,0.990,1.807,1.253,0.516,0.942,0.869,��쓌,6.1,��
2017/09/26,22:00,0.957,1.522,0.990,1.806,1.252,0.517,0.945,0.868,��,5.7,��
2017/09/26,22:10,0.956,1.524,0.989,1.805,1.254,0.517,0.944,0.869,��쓌,5.7,��
2017/09/26,22:20,0.956,1.523,0.990,1.806,1.255,0.516,0.940,0.867,��,5.2,��
2017/09/26,22:30,0.956,1.524,0.990,1.810,1.255,0.516,0.943,0.867,��,5.0,��
2017/09/26,22:40,0.958,1.525,0.990,1.808,1.252,0.517,0.943,0.869,��,5.1,��
2017/09/26,22:50,0.957,1.524,0.989,1.807,1.254,0.515,0.944,0.869,��,5.0,��
2017/09/26,23:00,0.955,1.525,0.989,1.809,1.254,0.515,0.941,0.868,��,6.0,��
2017/09/26,23:10,0.955,1.523,0.989,1.805,1.256,0.515,0.944,0.867,��,5.2,��
2017/09/26,23:20,0.956,1.524,0.989,1.807,1.255,0.516,0.944,0.868,��,3.3,��
2017/09/26,23:30,0.957,1.522,0.989,1.807,1.254,0.517,0.943,0.867,��,2.0,��
2017/09/26,23:40,0.955,1.525,0.991,1.807,1.254,0.515,0.945,0.868,��,2.3,��
2017/09/26,23:50,0.955,1.525,0.987,1.806,1.254,0.517,0.944,0.868,��쓌,2.5,��
